RH
19 19 15 13 11 13 17 22 26 28 26 25 26 22 19 18 16 14 16 13 22 35 54 57 76 96 98 85 88 92 92 90 89 90 94 74 71 63 18 23 35 59 58 59
21 20 17 12 10 16 21 25 24 22 23 22 20 19 18 16 14 13 12 23 34 50 50 52 50 54 80 93 95 95 91 93 95 91 93 86 76 72 74 26 40 67 73 59
21 20 12 11 21 21 29 24 23 21 22 24 24 20 20 16 14 14 13 15 19 50 57 58 60 57 45 62 83 87 95 87 94 97 98 89 81 74 73 74 69 40 26 35
14 12 12 22 26 26 25 25 23 26 27 28 29 23 25 22 18 15 16 16 27 31 43 56 66 63 71 72 73 96 83 83 90 91 92 98 96 76 73 74 72 82 72 36
19 17 19 22 22 23 22 26 29 29 22 27 27 26 30 26 23 15 16 23 30 39 52 60 66 63 62 65 75 84 94 72 80 82 81 86 95 95 83 73 77 73 73 83
21 19 20 21 25 26 26 23 23 28 24 22 31 34 28 25 32 37 32 21 23 32 45 50 51 56 53 54 68 76 80 80 69 68 62 73 77 84 85 80 78 79 68 63
27 23 19 23 28 29 24 22 31 31 27 24 26 20 25 24 24 29 31 40 47 46 36 40 47 47 54 49 52 55 63 73 74 69 62 58 83 68 82 78 77 72 72 66
24 26 23 23 25 27 25 23 25 27 24 24 29 25 22 22 26 29 40 50 48 47 38 31 31 41 42 55 52 43 55 67 79 84 80 66 75 84 77 66 69 62 64 63
20 24 26 26 29 37 35 31 31 24 27 29 29 27 27 24 26 34 31 41 58 52 38 49 51 56 60 59 67 84 43 64 64 78 79 64 66 79 73 61 54 60 57 60
17 18 25 28 27 34 40 30 30 36 34 32 28 34 37 34 22 24 36 30 38 43 44 72 62 72 64 56 85 99 66 77 71 71 69 45 60 77 83 77 67 58 57 62
12 12 19 18 23 28 30 31 32 34 34 33 25 29 30 26 26 16 23 23 23 29 34 68 64 70 55 55 57 86 72 61 65 52 63 57 57 60 86 85 81 65 61 56
6 8 11 14 16 23 30 37 36 34 33 42 33 15 21 32 26 22 20 19 18 18 18 21 53 54 58 47 54 48 73 66 50 42 64 58 51 64 75 74 94 71 68 60
9 7 6 7 11 17 21 35 40 35 31 39 41 24 39 36 29 24 21 22 15 11 21 34 25 23 29 14 21 34 53 72 53 42 46 43 42 58 72 75 77 91 71 63
5 4 4 4 4 4 8 12 14 24 29 38 40 24 44 40 30 28 27 20 16 16 26 26 21 20 9 6 6 10 27 42 38 40 40 36 46 43 51 62 78 75 73 62
4 3 2 2 2 3 3 4 10 15 24 22 20 26 36 36 28 24 23 17 17 30 48 55 38 43 36 19 8 15 17 18 19 20 34 37 40 36 28 33 50 60 56 69
3 2 2 2 2 3 3 4 8 12 15 20 25 27 33 34 32 33 28 27 26 36 50 55 55 58 79 53 52 55 67 58 34 18 18 53 51 53 54 50 49 47 38 60
2 2 2 2 2 3 3 6 7 9 14 19 25 39 40 34 35 42 46 42 55 56 58 60 65 80 83 92 95 88 82 74 58 60 42 42 30 29 32 46 57 46 39 54
2 3 2 2 2 2 4 5 6 11 36 47 48 51 48 39 48 61 49 39 52 67 61 51 68 88 79 81 98 88 68 49 41 44 45 70 86 71 40 45 58 50 49 64
3 3 3 3 3 4 4 10 24 29 42 69 75 68 64 56 58 57 48 50 55 71 60 55 78 94 95 86 96 94 82 60 60 58 65 51 98 98 84 62 89 71 70 75
3 4 5 5 5 5 8 27 50 55 61 63 56 77 58 38 38 54 44 56 83 71 53 56 75 96 82 85 83 88 95 94 77 68 65 74 88 92 88 82 81 81 61 81
4 4 5 9 12 15 41 61 85 82 76 84 75 86 53 32 30 50 29 40 84 63 55 67 74 96 64 53 72 96 72 54 56 64 65 63 62 70 91 92 86 82 76 79
5 6 8 12 19 37 54 68 82 87 83 91 75 55 29 27 26 28 29 60 84 70 62 84 98 97 42 47 65 93 76 65 67 60 53 45 42 43 48 52 78 70 60 50
7 12 15 23 31 54 63 78 87 90 81 93 68 56 42 28 27 34 23 57 74 69 85 96 96 96 96 84 76 97 74 64 55 59 59 51 45 36 33 33 33 30 35 43
14 20 17 25 54 52 70 84 100 94 90 79 64 60 35 42 37 28 22 44 71 63 95 96 97 97 96 95 87 87 89 72 52 55 40 34 29 22 21 26 37 25 22 21
41 28 44 47 57 58 77 94 88 82 76 48 39 36 24 22 22 16 30 59 72 72 97 97 98 98 94 96 94 97 88 64 64 47 43 39 34 30 20 23 30 22 18 19
65 58 55 51 54 52 54 64 74 32 20 17 37 20 34 18 10 24 30 65 87 86 98 97 96 97 96 96 91 80 71 68 56 46 42 35 28 28 24 18 22 24 27 25
Wind_Speed
20 22 21 20 18 17 15 16 15 16 16 13 14 15 19 20 22 27 27 17 17 17 23 22 23 15 13 11 7 7 6 5 4 6 8 11 10 11 9 6 5 3 0 3
21 22 23 22 18 16 15 14 17 20 16 11 13 16 18 17 20 21 22 25 24 24 24 27 31 33 27 19 17 15 11 10 7 7 9 8 7 8 7 7 5 4 4 4
21 24 23 18 17 15 17 16 16 15 15 14 13 15 19 13 18 20 20 22 24 31 29 29 28 30 29 22 22 21 21 18 17 14 10 8 9 8 6 4 5 5 4 3
22 22 17 14 14 13 14 16 14 12 10 11 14 16 16 19 17 17 16 17 22 25 32 35 32 27 27 27 26 34 28 24 24 21 13 13 14 12 10 5 3 1 4 4
16 17 14 14 14 15 16 16 16 15 15 12 16 17 17 21 20 17 16 18 23 26 20 24 26 32 38 37 33 37 36 29 33 27 22 21 20 17 16 12 10 6 4 2
18 17 13 17 17 19 21 23 25 23 24 19 19 20 18 17 19 20 21 18 21 20 22 22 24 26 28 38 45 44 40 38 35 31 29 29 29 26 20 17 17 14 9 8
17 16 17 15 17 22 24 26 27 29 28 27 25 24 21 20 19 20 21 23 24 25 25 25 29 30 28 32 38 40 46 42 41 37 33 32 30 32 25 22 21 19 14 12
16 19 19 19 21 24 28 30 30 33 31 31 31 29 28 24 25 22 20 21 24 27 28 28 28 24 30 24 35 42 48 50 47 45 39 32 41 36 32 30 24 20 18 17
23 18 18 19 22 25 31 35 34 34 33 33 32 32 30 27 27 27 25 27 29 31 31 28 31 31 31 23 34 33 44 55 57 51 47 41 43 41 40 36 32 27 24 21
30 28 23 20 21 25 30 36 36 36 37 37 35 33 31 33 30 29 26 27 29 28 27 24 25 30 24 19 22 35 42 58 56 58 56 43 44 50 40 43 36 33 30 28
32 32 32 30 25 23 26 32 36 36 38 39 39 38 33 37 32 30 26 26 28 27 28 28 26 27 24 20 18 21 37 49 53 46 53 51 47 53 53 45 40 37 33 34
34 34 34 34 34 30 27 32 35 34 36 35 40 42 36 37 36 31 28 28 28 27 23 28 29 32 34 26 18 20 21 40 42 47 46 42 47 54 52 50 39 43 39 37
35 35 35 36 37 37 35 33 35 41 41 39 41 39 36 38 37 34 28 30 30 33 23 20 26 33 33 30 23 22 16 22 29 31 38 41 43 53 53 51 48 47 46 45
34 36 37 38 39 41 39 35 32 36 39 42 42 44 40 40 39 38 34 28 29 30 26 26 27 29 31 31 25 23 26 25 23 22 33 41 46 46 60 57 51 50 49 53
36 38 39 39 38 43 43 39 31 33 34 40 39 39 38 40 38 37 33 25 29 27 23 26 24 24 26 28 26 25 27 32 30 28 30 34 35 43 48 61 58 58 54 58
37 38 39 39 37 40 42 35 33 32 33 36 37 37 37 37 37 32 29 28 28 25 25 21 18 17 17 19 23 17 21 25 32 34 39 39 42 42 42 50 55 60 62 58
38 39 41 39 36 39 41 35 38 37 35 34 34 36 37 35 34 29 23 27 28 26 23 17 19 18 15 12 17 12 12 13 13 22 32 43 49 52 51 57 58 60 60 61
40 39 41 41 40 43 39 35 34 33 29 31 32 34 35 34 29 25 27 30 28 26 20 16 19 18 18 15 17 10 10 15 11 10 10 15 32 44 58 54 63 65 67 65
41 42 42 42 42 42 37 33 31 31 29 32 32 31 31 30 21 22 21 28 30 22 15 18 21 18 16 14 15 18 16 11 7 5 5 4 14 21 45 57 39 50 55 65
41 40 39 39 40 40 34 30 30 30 29 32 32 33 32 29 25 23 24 27 23 16 14 16 23 16 12 14 15 15 11 6 10 9 6 3 8 18 22 38 52 55 37 47
41 41 38 35 35 33 32 33 35 36 34 30 29 26 30 25 23 22 24 26 23 14 14 18 23 20 15 17 17 14 16 14 15 11 8 5 2 7 19 33 37 42 47 44
42 40 38 36 34 34 34 36 36 37 35 31 26 25 26 25 24 24 20 22 18 14 16 19 24 15 17 17 18 19 19 15 10 11 11 12 11 10 9 12 20 31 38 38
38 37 35 33 33 33 35 34 34 32 30 24 26 28 25 23 24 26 21 23 22 18 17 18 13 12 12 16 17 25 21 17 13 10 11 13 11 12 13 12 8 11 15 19
34 31 32 33 30 32 29 29 27 29 31 30 28 27 30 26 24 24 22 24 23 20 17 13 18 15 20 13 16 21 22 18 13 12 12 13 13 11 12 14 13 12 13 15
30 30 31 30 29 30 27 28 33 32 29 28 26 26 26 25 25 24 24 24 25 22 19 9 17 23 22 23 18 19 20 17 15 16 14 14 16 15 15 16 17 17 17 17
26 30 31 31 30 31 29 29 30 29 26 29 26 26 23 22 24 25 25 25 27 25 22 16 9 13 17 17 15 16 18 19 18 16 17 18 19 20 19 19 21 21 20 18
Wind_Direction
295 296 302 306 303 303 305 305 304 294 293 292 292 279 270 287 287 287 285 288 265 247 232 233 241 200 202 176 180 192 228 245 277 316 326 338 3 22 27 28 25 20 163 215
282 291 299 303 303 302 298 302 299 293 293 286 283 283 285 293 296 293 289 280 268 256 255 250 251 267 213 187 200 210 213 234 244 251 275 282 318 351 7 29 40 31 0 310
282 288 294 297 295 301 303 305 306 305 301 302 304 305 305 308 304 302 294 282 276 253 251 258 264 267 266 242 217 213 215 214 223 239 231 243 273 294 313 350 45 36 20 335
283 284 287 289 286 289 282 295 302 306 303 312 308 300 300 304 304 302 295 284 278 278 260 250 240 236 246 247 242 221 214 219 216 225 225 233 243 265 261 258 266 341 25 6
279 284 285 280 286 292 291 295 298 300 303 309 305 308 315 311 305 300 290 275 262 259 247 244 247 258 244 242 240 228 226 217 228 219 226 223 239 235 249 240 241 243 260 302
283 288 285 295 302 306 307 310 309 311 310 305 303 302 307 302 297 289 288 275 268 262 260 258 263 255 262 253 245 234 223 225 226 231 233 239 215 221 224 243 246 239 240 250
289 285 291 297 301 304 307 307 304 302 304 309 310 307 306 303 301 295 293 292 286 285 279 267 262 267 259 264 244 242 236 229 232 234 240 248 238 222 216 222 236 245 247 256
284 291 301 306 306 304 299 296 298 304 308 312 313 313 315 313 309 310 307 297 290 291 289 288 284 289 256 277 275 245 230 226 230 236 239 240 240 231 218 220 222 234 247 256
293 291 290 295 297 296 294 296 300 302 303 304 305 307 309 311 312 303 305 304 298 299 295 296 291 285 293 284 283 244 223 229 233 234 231 236 234 243 232 219 222 227 233 245
295 295 289 286 283 286 287 293 296 297 300 300 301 300 303 305 303 306 302 295 295 296 296 291 294 273 286 292 288 239 222 223 227 231 235 237 233 235 244 229 222 224 233 238
292 295 298 297 293 283 280 280 284 287 290 293 296 295 301 298 302 301 301 297 292 286 282 273 280 264 276 295 299 254 232 222 225 231 234 238 237 233 239 242 229 233 231 244
292 295 296 297 295 293 290 286 282 281 284 284 291 295 300 300 302 303 303 301 299 294 290 274 265 261 261 274 281 285 250 224 227 234 232 230 230 231 238 245 227 232 235 238
292 291 291 290 292 294 291 286 289 296 298 299 294 302 300 299 302 303 306 306 297 293 291 281 272 260 262 267 261 266 247 226 232 231 233 230 228 230 235 238 246 240 235 239
282 282 284 288 292 292 289 289 292 284 288 290 293 297 297 297 300 302 305 301 287 292 295 292 287 272 267 265 270 265 252 241 230 228 233 232 234 238 233 234 242 247 239 243
280 282 285 288 292 294 299 303 303 292 286 285 292 291 290 291 294 298 303 295 287 294 295 300 292 283 275 264 267 257 262 254 244 234 234 238 237 240 238 237 240 243 248 247
280 281 283 287 296 295 294 304 299 294 292 290 289 290 289 291 295 301 300 298 289 290 286 290 292 270 262 268 258 246 259 252 242 234 235 234 233 233 239 243 245 243 245 250
281 284 285 288 292 290 294 298 296 295 289 285 283 284 287 291 294 296 300 293 294 290 282 279 282 257 253 254 244 215 237 241 244 240 237 238 236 240 237 239 243 242 245 249
288 287 288 291 291 291 294 297 295 287 283 283 284 286 290 292 292 285 282 288 289 292 265 280 278 244 222 238 214 195 239 229 222 213 225 234 233 235 231 234 237 240 245 253
288 288 291 293 293 293 297 295 290 285 283 284 284 283 285 282 286 293 290 293 291 274 259 287 285 261 203 237 238 200 212 225 245 264 252 251 230 243 230 229 224 233 247 248
287 288 290 292 293 295 294 286 283 283 286 280 283 280 285 287 281 285 287 288 291 267 286 293 283 249 209 234 255 261 240 199 227 209 196 196 216 231 233 232 237 243 255 250
285 288 288 286 287 289 287 286 286 290 293 294 291 277 279 279 280 276 283 288 284 277 282 284 272 269 220 245 251 230 213 220 221 224 220 198 174 197 214 220 223 225 239 251
285 285 283 283 283 282 284 283 285 290 301 288 284 279 280 280 277 274 279 285 276 270 273 264 256 234 232 245 238 230 212 225 224 233 237 224 217 236 243 206 208 210 214 222
280 281 282 281 279 280 283 288 288 291 289 289 293 282 283 279 274 271 271 270 273 269 275 264 220 242 239 246 235 225 215 225 239 243 243 243 236 254 270 267 235 228 230 237
274 279 281 280 280 279 284 287 282 279 283 294 293 281 274 274 272 275 273 268 268 264 265 268 262 270 275 258 222 222 230 226 238 224 234 234 235 251 264 258 247 252 252 258
272 276 277 284 284 281 276 273 285 289 284 288 288 287 282 276 269 269 270 263 266 259 249 248 231 246 267 267 219 224 227 223 219 229 238 247 248 253 257 255 250 248 254 252
272 276 279 279 281 277 274 277 279 279 286 285 285 289 285 276 268 265 263 257 261 253 247 253 242 244 240 217 214 218 221 223 227 238 245 250 248 245 249 247 245 250 259 256